Wind_Speed
43 44 45 44 45 47 46 46 47 48 49 52 55 57 57 56 61 64 59 55 56 52 47 46 47 48 50 50 49 48 46 45 44 41 37 34 35 37 36 34 34 33 32 31 30 30 30 31 32 33 34 35 36 37 38 39 40 41 42 43 44 45 46 46 46 47 47 47 48 48 49 49 49 49 50 50 51 51 52 52 52 52 53 53 53 54 54
44 44 44 43 44 46 45 44 45 47 48 50 52 52 51 51 55 60 61 61 62 55 45 44 46 47 47 48 49 48 47 46 44 39 35 34 35 37 36 34 34 34 32 31 30 30 30 30 31 31 33 34 36 37 38 39 40 41 43 44 45 46 47 47 48 48 48 48 48 49 49 50 49 50 50 51 51 51 52 53 53 53 53 53 53 54 54
46 45 43 42 44 45 45 44 46 47 46 46 47 47 47 49 52 55 57 61 65 59 48 46 50 50 47 45 46 46 46 46 44 40 35 34 36 37 35 34 34 34 33 32 31 31 31 31 31 32 34 35 37 38 39 40 41 43 43 44 45 46 47 48 48 49 49 49 50 50 50 50 50 50 50 51 51 51 51 52 53 53 53 53 54 54 54
47 45 43 44 44 44 45 46 47 45 43 44 45 45 45 47 49 51 54 58 61 58 54 52 52 51 49 46 45 46 47 47 45 42 38 36 36 36 35 34 34 33 33 33 33 32 32 32 32 34 35 37 38 39 40 41 42 42 42 43 44 45 46 47 48 49 49 50 50 51 51 51 51 51 50 50 50 50 51 51 52 53 53 53 53 54 54
46 44 43 44 44 46 48 47 44 41 42 44 45 45 46 46 47 49 51 53 54 56 59 59 54 50 49 48 47 46 46 46 45 43 40 38 37 37 35 34 33 33 33 33 33 33 32 32 33 35 36 37 38 38 39 39 40 40 41 42 43 45 46 47 48 48 49 49 49 50 51 51 51 51 51 51 51 51 51 52 52 53 53 53 53 54 54
46 43 41 42 44 48 47 42 39 40 41 42 44 45 45 44 45 46 46 46 47 51 57 60 58 53 50 49 48 47 46 46 45 44 42 39 38 37 35 34 33 33 33 33 33 32 32 33 34 35 36 37 37 38 38 38 39 40 41 42 43 44 45 46 47 47 48 48 48 48 49 49 50 50 50 51 51 52 52 52 53 53 53 53 54 54 54
45 42 40 42 45 46 43 37 37 40 40 40 42 43 43 42 42 43 43 42 41 43 50 56 57 55 53 51 48 47 47 47 46 46 43 39 38 38 35 33 33 33 33 33 32 32 33 33 34 35 36 36 37 37 37 37 38 39 41 42 43 43 44 45 46 46 46 46 46 47 47 47 47 47 48 49 50 51 53 53 53 53 53 53 53 53 54
44 41 40 43 45 43 39 36 37 39 40 40 43 44 43 40 39 39 39 39 37 38 43 48 51 53 52 50 48 47 47 48 49 48 44 40 39 37 34 33 34 34 34 33 32 32 33 33 33 35 35 35 36 36 36 36 37 38 39 40 41 43 44 45 45 45 45 45 45 46 46 46 46 46 47 49 51 52 53 53 54 54 54 53 53 53 54
42 41 40 42 43 41 38 36 36 37 37 37 39 41 38 34 35 37 36 35 34 34 36 40 45 49 49 48 48 47 48 50 50 46 41 40 39 35 33 33 35 34 33 32 32 32 32 32 33 34 34 34 34 34 34 35 37 38 38 39 41 42 44 44 45 45 44 44 44 45 45 45 46 47 49 50 51 52 53 53 54 54 53 53 51 51 51
41 42 42 42 42 40 38 37 36 35 33 31 32 35 32 29 31 33 33 33 32 31 32 35 39 45 46 45 47 47 48 48 45 39 36 37 36 34 33 34 34 33 33 32 31 31 31 32 33 33 33 33 33 33 35 36 38 38 39 40 41 42 43 44 44 44 43 43 43 43 43 45 46 48 49 49 50 51 51 51 51 50 49 48 46 45 46
40 41 42 43 42 40 38 37 37 36 35 33 32 33 30 28 28 29 30 31 30 29 31 32 34 41 44 42 43 43 42 41 37 35 34 34 33 32 32 32 33 32 31 30 30 30 31 32 32 31 32 32 33 35 36 37 38 38 39 39 40 41 42 42 42 41 41 41 41 41 43 44 46 46 47 47 47 47 47 47 46 46 45 44 41 40 41
39 40 42 42 42 40 38 37 37 37 38 36 35 35 32 29 27 26 27 28 27 27 30 30 30 34 35 35 36 36 36 36 35 34 32 31 30 31 31 31 32 31 29 28 29 30 31 31 30 31 32 33 34 36 36 36 36 36 36 37 38 39 39 39 39 38 38 38 39 41 43 43 43 43 43 43 43 43 44 45 45 45 45 44 41 40 41
39 40 41 41 40 38 37 36 36 36 37 37 38 38 35 32 29 26 26 28 27 26 29 29 25 23 23 24 28 29 31 33 34 31 29 28 28 29 29 29 29 28 27 28 29 30 30 30 30 31 33 34 35 35 35 34 34 34 34 35 36 37 36 36 35 35 36 38 39 40 41 40 40 40 40 40 41 42 44 45 46 46 46 45 43 41 41
38 38 38 39 37 35 35 35 35 35 35 35 36 35 34 34 32 30 29 29 28 27 29 29 25 20 20 22 25 27 28 29 29 27 26 26 26 27 27 27 27 28 28 28 29 29 29 29 30 31 33 33 34 33 33 33 33 33 33 34 34 35 34 33 32 34 36 38 38 38 38 37 37 37 38 40 42 44 45 44 44 44 43 42 41 39 39
38 37 38 38 36 34 33 34 34 33 33 33 33 32 30 31 31 30 29 30 30 28 28 31 30 25 23 24 25 27 27 26 25 24 24 24 24 25 26 26 27 28 28 28 28 28 28 28 30 31 32 32 32 32 32 33 32 32 32 33 33 32 31 30 32 34 36 37 37 36 35 35 34 35 38 40 42 44 44 42 41 40 38 36 36 36 37
38 36 36 37 34 31 31 31 30 29 30 30 30 29 27 27 29 28 27 30 34 31 27 30 32 29 27 28 27 27 27 26 25 25 24 24 25 26 26 27 27 27 27 27 27 27 27 28 29 30 31 31 31 31 32 32 31 31 31 31 30 30 29 29 32 35 36 36 35 34 33 33 34 35 37 38 41 43 42 38 34 33 31 30 31 32 34
38 37 36 35 32 29 30 30 30 29 28 27 27 26 25 24 26 27 27 30 34 32 27 27 27 28 30 31 29 29 29 27 26 27 26 26 26 26 26 26 26 26 26 26 26 26 26 27 28 29 29 29 30 31 31 30 29 29 29 29 29 28 28 30 33 35 35 33 32 31 32 33 34 35 35 37 39 41 37 32 28 27 26 25 25 26 28
35 34 32 31 31 31 30 29 30 30 28 25 25 26 25 24 24 25 26 29 32 32 30 27 26 28 32 32 29 28 29 28 28 27 26 26 25 25 26 25 25 25 25 25 24 25 25 25 27 27 27 28 30 30 30 29 29 29 29 28 28 27 28 31 34 34 32 31 30 30 32 33 34 34 34 37 39 37 32 27 24 22 20 19 20 21 23
33 31 27 26 28 30 30 29 29 30 29 26 25 25 25 25 24 24 26 29 30 30 30 31 29 29 31 32 30 27 26 27 27 26 26 27 26 26 25 24 24 24 24 23 23 23 24 24 25 25 26 27 29 29 28 28 28 28 28 27 26 26 29 32 33 31 29 28 29 29 31 31 32 32 34 36 37 33 28 23 19 18 17 16 17 19 21
30 29 27 25 26 27 28 28 28 29 29 26 25 25 25 24 23 24 25 28 30 31 31 31 30 29 31 34 32 27 25 27 27 26 27 27 26 24 23 23 23 23 22 21 21 22 22 22 22 24 25 26 27 27 27 28 28 27 27 26 25 26 29 31 30 28 27 27 27 28 29 29 30 30 33 35 34 29 24 21 18 18 19 19 18 18 18
27 26 25 26 26 25 25 27 28 28 27 25 24 25 24 21 20 21 23 26 30 31 30 30 29 29 31 34 33 30 29 29 28 27 27 26 24 23 22 22 21 20 19 20 20 20 19 19 21 23 24 25 26 26 26 27 27 26 25 24 24 26 29 30 28 26 26 26 26 27 28 28 29 29 31 33 31 24 20 20 20 20 21 20 18 17 16
26 24 24 25 25 23 22 25 27 27 26 24 24 24 22 20 18 17 19 24 28 28 28 30 31 30 32 34 34 33 32 31 29 27 26 24 23 22 21 20 19 18 18 19 19 18 17 18 20 21 22 23 24 25 26 26 25 24 23 23 24 27 29 28 26 24 24 24 25 26 27 28 29 29 29 31 28 18 16 19 20 18 18 17 15 15 13
26 23 23 23 24 22 21 22 25 25 25 24 23 22 20 19 17 16 17 21 24 23 25 30 35 34 34 35 35 31 28 28 28 26 25 23 22 21 20 18 16 16 18 18 17 16 16 17 19 20 21 22 23 24 25 25 23 22 21 22 24 27 28 27 25 24 23 23 24 25 26 27 29 28 28 30 25 15 14 17 17 16 14 13 13 13 13
26 24 23 23 23 21 19 20 22 23 24 23 22 19 18 16 14 13 14 17 21 22 23 28 34 35 32 32 31 28 25 27 27 26 24 23 21 19 18 16 15 16 17 16 15 14 15 17 19 19 20 21 22 23 24 23 22 20 20 22 24 26 27 26 25 23 22 22 23 24 25 27 28 28 28 28 24 15 13 14 14 12 9 6 7 9 11
25 22 21 22 21 18 18 20 21 22 22 22 20 18 16 13 11 11 12 15 19 21 22 25 30 31 28 26 25 24 24 26 25 24 23 21 19 17 16 15 15 16 15 14 13 14 15 17 18 18 19 20 21 22 22 21 20 19 20 21 23 25 25 25 24 22 21 21 22 23 24 26 27 27 26 26 23 17 13 11 10 8 5 2 6 8 9
22 19 19 20 18 17 19 19 19 19 20 20 19 17 13 11 10 13 17 17 16 16 17 20 24 26 25 23 22 20 20 21 21 20 19 18 17 16 15 14 15 15 14 13 12 13 15 16 17 17 18 19 19 19 19 18 18 18 19 21 22 24 24 23 23 22 20 20 20 21 23 24 25 26 25 23 22 18 14 10 8 6 4 3 5 5 6
19 18 18 18 17 17 18 18 17 18 18 19 20 17 12 8 9 14 19 18 13 12 12 14 17 19 19 18 17 17 17 17 17 17 17 16 15 15 14 14 14 14 12 11 12 13 15 15 15 16 17 17 17 17 16 16 16 17 19 20 21 22 22 21 22 21 19 19 19 19 21 23 24 25 24 22 21 19 14 9 7 6 5 5 5 3 5
16 17 19 19 18 16 15 15 15 16 18 19 21 20 15 10 11 15 17 15 11 10 10 11 12 14 14 14 14 15 15 16 16 16 16 15 15 15 14 14 14 13 12 11 12 13 14 14 15 16 16 16 16 16 15 15 16 17 18 19 21 22 21 20 21 21 20 19 17 18 19 21 21 23 23 21 20 19 14 9 5 3 3 5 4 2 4
15 16 19 21 19 17 15 14 13 14 16 17 20 22 19 14 13 14 13 10 8 7 7 7 7 8 10 10 11 13 14 14 15 15 15 15 15 15 14 14 13 12 12 12 12 13 14 14 14 15 15 16 16 15 15 15 16 17 17 18 20 20 20 19 20 21 20 19 17 16 17 18 19 21 21 20 19 18 16 10 4 2 2 2 3 3 2
12 15 19 21 20 18 16 15 14 14 14 15 18 21 21 17 15 13 10 8 6 6 7 8 8 8 9 10 11 12 12 13 13 14 14 15 15 15 14 13 13 12 12 12 12 13 13 14 14 14 15 16 16 15 15 15 16 16 16 16 17 18 19 19 20 20 20 20 17 16 16 16 17 18 19 19 18 17 17 13 6 4 3 1 7 8 4
12 15 19 21 21 20 17 15 15 15 14 14 17 19 19 18 17 14 11 9 9 10 12 14 14 14 13 12 12 12 12 12 13 13 14 15 16 15 15 13 13 13 13 13 13 13 13 13 13 14 14 15 15 15 14 14 14 14 14 14 15 16 17 18 19 20 20 20 18 16 15 15 16 16 16 17 17 16 16 15 10 6 4 3 8 10 6
12 14 18 20 20 19 16 14 13 14 14 15 16 18 18 17 16 14 14 13 12 13 15 17 17 17 16 14 13 12 12 13 14 14 15 16 17 16 15 14 13 14 14 13 12 12 12 12 13 13 14 15 14 14 14 14 14 13 12 13 14 15 15 17 19 19 19 19 18 17 15 15 15 14 15 15 16 15 14 14 13 8 5 5 6 9 8
12 14 17 18 19 18 16 13 13 13 14 15 16 17 18 18 16 15 15 15 15 16 18 19 18 17 17 15 14 13 13 14 15 17 18 18 18 17 16 15 15 15 14 13 12 12 11 12 12 13 14 14 14 13 14 14 14 14 13 14 14 14 15 17 18 18 18 18 18 16 15 14 14 14 14 14 14 14 13 13 13 12 8 7 6 5 3
10 13 14 16 17 17 15 14 13 13 13 14 15 16 17 18 18 17 16 16 17 19 20 20 19 18 18 18 17 16 15 16 18 19 20 20 20 18 17 16 16 16 15 13 12 11 11 11 11 12 12 13 13 13 13 13 14 15 15 14 14 15 15 15 16 16 16 17 17 16 15 15 14 13 13 12 12 12 12 11 12 13 11 9 9 7 6
8 11 12 13 14 14 14 13 13 13 13 13 14 15 16 16 16 18 18 18 18 20 21 20 18 18 19 20 20 19 18 18 19 21 22 22 21 20 18 17 17 16 15 14 13 12 11 10 11 11 11 12 13 13 13 12 13 13 13 13 14 14 14 14 14 15 15 16 17 16 15 15 14 13 13 12 11 10 11 10 10 11 11 11 11 10 10
5 7 10 10 10 10 11 11 11 11 12 12 13 14 14 14 15 17 19 19 19 21 23 22 19 18 19 21 21 20 20 20 20 21 22 22 22 21 19 18 17 17 16 15 13 12 11 11 11 12 11 11 12 13 12 10 10 10 11 12 13 13 12 12 12 13 14 15 17 17 16 15 15 14 13 12 10 9 9 9 9 9 9 10 11 11 12
4 6 8 9 8 8 8 8 8 10 11 11 11 12 13 14 16 18 20 20 20 22 23 23 21 19 20 20 20 21 21 21 21 21 21 22 22 22 20 19 18 18 17 16 14 13 12 12 12 12 12 12 12 12 10 8 9 9 10 11 12 12 11 11 11 12 12 14 16 17 16 15 14 15 14 13 11 9 8 7 7 7 8 8 10 11 12
5 6 7 8 7 6 6 6 7 8 9 10 10 11 12 14 18 21 20 20 21 23 23 22 21 19 19 19 20 20 20 20 20 21 21 21 21 21 21 20 19 19 18 17 16 14 13 12 12 12 12 12 11 10 9 7 8 9 10 11 12 11 10 10 11 11 12 12 14 15 16 15 14 14 14 13 12 10 8 6 5 5 5 6 7 8 10
6 6 6 6 6 5 5 5 3 2 3 5 7 7 9 12 17 19 20 20 21 22 22 21 18 16 16 17 19 19 19 19 19 20 21 21 21 21 21 21 20 20 19 18 17 15 13 12 12 11 11 11 11 9 8 7 7 9 10 11 11 11 10 10 10 10 11 11 12 13 14 14 14 14 14 14 12 11 9 7 4 3 3 3 4 5 7
5 5 5 5 5 6 6 6 5 7 8 7 6 7 8 10 13 16 17 16 15 16 16 16 16 16 16 16 16 17 18 19 19 20 21 22 22 22 22 22 21 21 20 19 17 15 13 12 11 11 10 10 9 8 8 7 7 8 9 10 10 10 9 9 9 9 9 9 9 10 11 12 12 13 13 14 13 12 10 8 5 3 1 2 2 2 3
5 5 5 4 4 5 5 5 7 12 13 11 9 8 8 11 13 14 13 11 10 9 9 11 13 15 16 16 16 16 16 17 18 19 20 21 21 21 21 21 20 20 19 18 16 14 12 11 11 10 10 10 9 8 8 8 8 8 9 9 8 8 8 8 8 8 7 7 7 7 8 9 10 11 12 13 13 13 12 10 8 5 2 0 2 3 3
6 6 5 3 3 3 3 2 4 9 12 13 12 11 11 12 14 14 12 10 9 10 10 11 13 14 16 17 17 16 16 16 16 17 18 18 18 17 17 17 17 17 16 16 15 14 13 12 11 11 11 11 10 10 10 9 9 8 9 9 8 8 8 8 7 7 6 6 6 5 6 7 8 8 9 10 11 12 12 12 10 8 5 2 1 3 4
4 4 4 2 2 2 3 2 2 4 6 8 9 10 11 13 15 16 15 13 12 13 14 15 15 15 15 16 17 17 17 17 16 15 14 14 13 13 13 14 14 14 14 14 14 13 13 12 13 13 13 13 12 11 11 10 10 9 9 9 9 9 9 8 8 7 6 6 6 5 5 5 5 6 7 8 9 11 11 12 11 10 8 5 2 2 3
4 4 4 4 3 4 5 5 5 4 4 4 4 6 8 11 14 16 16 14 13 14 15 16 17 17 17 17 17 17 17 17 17 15 14 13 12 12 12 12 13 13 13 13 13 13 12 12 12 13 13 13 12 11 11 11 11 11 10 10 10 9 9 9 9 8 8 7 6 5 4 4 5 4 4 5 6 8 9 10 11 11 10 8 6 3 2
6 6 6 6 7 7 7 8 8 8 8 7 6 6 7 9 11 13 14 13 13 14 15 17 19 20 20 19 18 17 17 18 19 19 18 16 15 14 14 14 14 13 13 13 13 12 12 12 12 12 13 13 12 11 11 11 11 11 11 11 11 11 11 10 10 10 9 9 7 6 5 4 4 4 4 4 4 5 6 7 9 10 10 9 8 6 4
8 8 8 8 9 10 10 11 11 12 12 11 11 10 9 9 10 12 13 14 15 16 17 18 20 21 21 21 21 20 19 20 21 21 21 21 19 18 17 16 16 16 15 15 15 15 15 15 15 14 14 13 13 12 11 11 11 11 11 12 12 12 12 12 12 11 11 10 10 9 7 6 5 5 4 4 3 4 4 5 6 7 8 8 8 8 7
9 9 9 10 10 11 11 12 13 13 14 14 14 14 13 13 12 13 13 14 16 17 18 19 20 22 23 23 23 23 23 23 23 23 24 24 23 22 20 19 18 17 17 17 17 18 18 18 17 17 16 15 15 14 14 13 12 12 12 12 12 12 13 13 13 12 12 11 11 10 10 9 7 6 5 5 4 4 4 4 4 5 5 6 7 7 7
12 12 12 12 13 13 13 14 14 15 16 16 17 17 17 17 17 17 17 18 19 20 20 21 21 22 22 23 24 25 25 25 25 25 26 25 25 25 24 23 22 21 20 20 20 20 20 20 20 19 18 17 17 17 17 16 16 15 14 14 14 14 14 13 13 13 13 12 12 11 11 11 10 9 8 7 6 5 4 4 4 4 4 4 4 5 5
12 13 13 13 14 14 14 15 15 16 16 18 19 19 20 21 21 21 22 22 23 24 24 25 25 25 24 25 25 25 25 25 25 26 27 27 27 26 26 26 26 25 24 23 23 23 23 23 22 22 21 21 20 20 20 19 19 18 18 17 16 16 15 15 14 14 14 13 13 12 12 12 11 11 10 9 8 8 7 6 5 5 4 4 3 3 3
11 11 11 12 13 13 14 15 16 16 17 18 19 20 21 23 24 25 26 26 27 27 28 28 29 29 29 29 28 28 28 27 27 27 28 28 28 28 28 28 28 28 28 27 26 26 26 25 25 25 24 24 23 23 22 22 21 21 20 20 19 18 16 16 15 14 14 13 13 13 13 13 13 12 12 11 10 10 9 8 8 7 6 6 5 4 3
12 12 12 13 14 15 16 17 18 19 20 21 22 23 24 25 26 28 29 30 31 31 31 31 32 32 33 33 33 33 33 32 31 30 30 30 30 30 29 29 30 30 30 30 29 29 29 28 28 27 27 26 26 26 25 24 23 23 22 21 21 20 19 17 16 15 14 14 13 13 13 14 14 14 14 13 13 12 11 11 10 9 9 8 7 7 6
15 16 16 17 18 18 19 21 22 23 24 25 26 27 28 29 31 32 33 34 35 35 36 36 35 35 35 35 36 37 37 37 37 36 35 34 33 33 32 32 32 32 32 32 32 31 31 31 31 30 30 29 29 29 29 28 27 26 25 24 24 23 22 21 20 19 18 17 16 15 15 15 15 16 16 16 15 14 13 13 12 11 11 10 10 9 9
Wind_Direction
283 283 282 279 275 273 272 270 269 268 266 265 263 264 264 262 261 260 256 254 257 257 254 255 259 259 259 261 265 267 267 267 266 267 268 266 267 269 269 268 268 270 271 270 269 270 272 276 278 280 282 283 282 281 280 279 279 279 280 281 282 282 282 282 281 280 280 279 278 278 277 276 275 273 272 271 270 270 270 269 269 268 267 266 265 263 261
284 283 281 278 275 273 271 270 270 271 271 269 268 268 269 267 265 264 260 255 254 253 252 254 256 257 256 256 259 262 264 264 264 266 268 266 266 267 266 266 267 268 267 265 267 272 277 280 281 283 285 285 285 283 281 281 280 281 281 282 282 282 282 281 281 280 280 279 278 278 277 276 275 274 273 272 272 271 271 271 270 269 268 267 266 265 263
284 285 282 277 275 274 273 272 272 274 274 273 273 273 272 270 267 264 261 257 252 248 248 254 255 256 257 256 256 258 260 261 261 264 265 265 264 263 262 263 265 266 265 264 267 273 278 279 281 284 285 286 285 283 282 282 282 283 283 283 282 282 282 281 281 280 280 279 278 278 277 277 276 275 274 274 273 273 272 271 271 270 269 268 267 266 264
284 287 282 278 277 274 272 276 279 279 278 276 275 274 271 270 270 267 263 259 254 247 248 254 255 255 257 257 255 256 257 258 259 260 260 261 262 261 260 262 264 265 264 264 267 273 276 278 281 284 285 285 284 283 283 283 284 284 284 284 284 283 282 282 281 280 279 278 278 277 277 277 276 275 275 275 274 274 273 273 272 271 270 269 268 267 265
283 285 281 279 277 273 275 283 285 279 275 274 273 272 271 271 271 271 268 265 258 251 249 252 253 254 257 258 257 257 256 255 257 256 256 258 259 258 259 262 264 264 263 263 267 271 274 278 281 283 284 284 284 284 284 284 284 284 284 284 284 284 283 282 281 279 278 278 277 277 277 277 276 276 275 275 275 275 275 275 274 273 272 271 269 267 265
282 284 280 277 273 274 281 287 282 275 273 272 272 273 273 273 271 272 272 270 264 256 251 250 251 254 256 257 257 258 257 255 254 255 255 255 255 255 258 260 262 262 262 263 266 269 273 278 281 284 285 284 284 284 284 284 284 285 285 285 284 284 283 282 281 279 278 278 277 277 277 277 277 277 276 276 277 277 277 277 276 275 274 272 270 268 266
282 283 279 273 272 278 285 283 276 273 273 272 273 272 272 272 272 272 272 271 268 261 254 250 251 252 254 256 258 259 258 256 254 255 254 252 251 253 255 258 259 260 261 262 265 269 274 277 281 283 283 283 284 284 284 285 286 286 286 285 285 284 284 283 282 281 280 279 278 278 278 279 280 280 279 279 280 280 280 279 279 277 275 273 271 269 267
281 280 276 273 276 281 283 278 274 273 273 272 272 272 271 272 272 271 271 270 268 263 256 252 251 249 250 257 259 257 257 255 253 253 252 248 248 250 251 255 258 259 260 262 266 270 274 277 280 281 282 283 283 284 285 287 288 288 287 287 286 286 285 284 283 283 282 281 280 280 281 282 283 283 283 283 283 283 283 282 281 279 277 275 272 270 268
278 279 276 275 277 279 279 277 274 271 271 271 270 271 273 272 268 268 270 270 266 259 254 254 251 245 245 254 257 254 255 255 252 251 248 243 243 246 249 254 256 257 259 262 267 271 273 276 278 280 281 282 282 283 286 289 290 289 288 288 288 288 287 285 284 284 284 284 282 283 283 284 284 284 285 285 285 285 284 283 282 280 278 275 273 271 268
274 275 274 272 274 276 278 277 273 269 267 266 269 273 275 272 267 264 266 268 265 255 249 250 248 240 241 250 252 250 252 253 250 246 242 238 239 244 248 251 253 255 258 263 267 270 273 275 277 279 280 280 281 284 288 291 291 290 289 289 289 288 288 287 286 286 286 285 284 285 285 285 285 286 286 286 286 285 284 283 281 279 277 276 274 271 267
271 270 270 270 272 275 276 274 271 269 266 264 267 273 276 275 269 262 261 266 265 253 247 248 245 239 241 248 250 247 247 248 245 240 235 234 238 243 245 247 250 254 259 263 267 270 272 274 276 277 278 278 281 286 290 291 291 290 289 289 289 288 288 288 287 287 286 286 286 286 286 286 287 287 287 286 285 284 282 281 280 279 279 278 275 270 265
269 268 268 269 271 274 274 271 268 267 266 265 266 268 271 272 270 264 259 263 264 254 246 247 246 241 242 244 242 239 240 240 238 234 231 233 237 239 242 246 251 255 259 263 267 269 271 273 274 275 276 278 283 288 291 292 292 291 291 291 290 289 289 288 288 287 287 287 287 288 288 289 288 287 286 284 283 283 282 281 281 281 281 279 276 272 268
268 268 268 269 271 272 272 270 268 266 265 265 264 264 265 264 266 263 256 255 257 252 245 245 246 243 240 233 227 226 231 234 232 228 228 230 234 238 243 248 252 256 260 264 266 267 269 271 273 274 277 281 286 291 293 293 293 293 294 294 293 291 291 290 289 288 288 289 290 290 290 289 288 286 285 285 285 285 283 283 283 283 282 280 277 272 267
265 265 266 268 271 272 270 268 267 266 266 265 264 263 263 262 261 259 254 252 252 245 241 243 242 238 236 230 223 222 225 228 225 223 225 229 234 241 247 251 255 258 261 263 264 266 269 271 274 276 280 285 289 292 293 293 293 294 296 295 293 293 293 291 289 290 292 294 293 293 292 290 289 288 288 289 289 288 287 288 287 285 282 279 275 270 265
263 263 265 268 271 271 269 267 267 266 264 263 262 261 260 261 261 257 252 249 246 241 237 238 238 236 232 229 225 224 225 225 224 224 228 234 241 248 251 254 256 258 260 262 263 266 269 273 276 280 284 287 290 292 294 294 293 294 295 295 295 295 293 291 292 295 297 297 296 295 293 293 294 294 293 293 292 291 292 292 289 285 282 277 272 267 264
263 263 264 268 270 268 265 263 263 264 262 260 260 259 258 258 259 256 249 244 245 244 234 228 230 231 228 225 223 223 224 224 225 227 233 240 246 250 252 254 256 258 260 262 264 267 272 276 280 284 287 289 291 293 295 295 294 294 295 296 297 295 292 293 297 300 300 299 297 296 296 298 299 299 298 296 295 295 295 293 289 286 285 280 274 269 265
265 263 262 265 266 265 263 259 255 257 261 260 257 256 257 257 256 255 247 240 244 247 236 222 224 227 227 225 223 223 224 225 228 232 238 241 244 247 250 252 255 257 259 261 264 270 275 280 284 286 289 291 293 295 296 296 296 296 297 298 298 294 294 298 302 303 302 299 297 298 300 302 302 301 300 300 300 300 298 295 293 291 288 283 278 275 270
268 265 263 263 262 259 259 258 254 254 258 261 258 255 256 257 256 253 246 238 240 244 238 230 231 231 228 227 228 228 228 229 231 234 237 239 242 245 247 250 252 253 256 260 266 273 279 283 286 288 291 293 294 296 298 297 296 297 299 299 297 294 297 302 304 304 301 298 298 301 304 305 304 303 303 304 306 306 302 298 295 293 290 286 284 281 278
267 263 259 261 262 259 256 256 255 253 255 259 260 255 254 257 257 253 244 236 235 238 236 230 231 231 229 230 232 231 228 228 231 235 238 239 241 243 245 247 250 252 256 262 270 277 282 285 287 289 291 292 294 297 299 297 296 298 299 298 296 296 301 304 305 303 300 298 300 304 306 307 308 308 308 310 313 311 304 297 295 293 294 294 291 287 283
267 260 256 259 262 260 256 253 252 252 253 257 259 254 253 259 260 252 242 233 230 233 234 231 232 234 233 230 229 228 228 231 235 239 242 242 242 242 244 247 250 253 259 267 274 280 284 286 288 289 289 291 294 296 297 296 296 299 299 297 296 299 303 305 303 301 299 299 302 305 307 311 314 315 315 317 319 313 302 295 294 297 301 299 294 295 295
271 264 260 259 256 255 256 254 251 250 251 254 257 254 254 260 261 249 239 233 229 229 231 234 235 235 230 226 226 230 235 237 238 239 240 240 240 241 243 245 248 253 261 269 275 280 284 287 289 289 290 291 293 294 295 295 296 298 298 295 297 301 304 303 300 298 298 300 303 307 311 315 318 319 321 324 323 314 300 293 292 297 302 299 294 296 299
274 268 263 259 252 249 251 253 252 250 248 249 253 254 256 262 263 250 238 234 231 227 228 231 232 230 227 227 232 237 236 233 233 235 234 232 234 237 240 242 246 254 262 269 274 279 285 288 290 291 293 293 293 292 293 294 296 297 295 296 299 303 305 303 299 297 298 301 306 310 314 318 320 323 327 329 326 312 293 292 294 297 302 299 292 291 293
272 266 259 255 250 246 245 248 251 250 248 248 249 253 257 260 260 255 247 239 235 233 226 220 220 224 226 230 239 243 235 225 226 229 229 228 229 232 236 240 247 257 264 269 275 283 288 290 292 294 296 295 293 292 292 293 295 295 295 298 302 304 306 305 300 296 298 302 307 312 316 320 323 327 331 334 330 309 285 294 301 299 298 297 289 282 285
271 265 256 250 248 244 241 243 246 247 248 245 244 250 258 254 244 245 249 242 238 240 233 219 216 222 225 228 235 238 228 221 223 227 228 228 228 229 233 241 251 260 265 271 280 288 289 290 293 296 298 297 295 294 293 293 294 295 297 300 302 305 308 308 303 298 298 303 308 313 317 321 325 329 333 337 336 315 286 295 309 302 288 294 308 301 294
271 262 250 245 244 240 238 241 243 245 245 241 239 247 254 245 224 217 224 224 225 234 239 231 226 227 229 231 234 231 222 220 223 224 223 222 224 227 234 243 253 259 266 275 285 289 288 290 293 297 299 299 298 296 294 293 294 297 299 300 303 306 310 311 307 302 300 303 309 315 318 321 326 330 334 340 341 326 300 298 311 299 271 300 341 333 317
266 256 243 238 236 232 233 237 240 242 240 236 235 236 234 229 218 200 194 195 202 215 225 228 228 231 235 235 233 226 218 217 216 213 213 217 224 231 240 247 253 259 267 279 287 288 288 292 296 299 301 302 302 300 297 294 296 299 299 300 304 309 312 315 313 308 305 306 310 316 320 323 327 330 335 342 345 336 320 308 297 269 247 288 316 323 324
257 245 233 226 223 224 231 235 237 238 235 231 229 224 212 211 218 200 188 185 190 201 212 221 226 229 228 223 216 210 208 209 208 208 213 220 228 236 244 249 253 259 269 280 286 287 290 295 300 302 304 306 305 303 300 297 298 301 301 302 307 312 316 319 318 315 311 309 312 316 321 325 329 331 335 343 350 347 339 326 298 255 242 277 295 312 324
249 235 221 213 211 217 227 232 233 235 234 230 229 225 215 205 202 195 187 185 186 192 202 211 215 216 214 210 207 208 210 213 216 219 223 227 232 239 243 246 251 259 270 279 283 286 291 296 301 305 307 308 307 305 303 302 302 304 305 308 312 316 320 323 323 322 319 315 314 316 321 327 331 333 335 342 351 356 358 350 325 278 249 268 276 317 329
243 227 214 209 208 212 221 227 231 236 236 231 230 232 228 213 194 182 175 171 175 190 208 215 208 207 214 219 221 222 222 224 228 231 233 234 236 238 240 242 250 260 270 278 284 288 293 297 302 306 309 310 309 309 309 307 306 306 307 310 314 320 324 326 329 330 327 322 317 316 320 326 332 335 337 342 349 1 10 10 6 37 15 280 203 153 92
237 220 211 211 212 215 221 228 232 238 238 231 231 236 237 229 217 201 185 176 186 212 234 248 251 245 241 241 239 236 234 235 237 239 239 238 238 238 238 242 252 263 271 279 286 290 295 299 302 306 309 311 312 312 312 310 307 305 303 306 314 323 329 330 331 334 333 329 324 319 319 324 330 336 340 343 348 2 15 21 39 73 55 132 171 164 138
231 217 210 210 213 216 222 227 230 232 232 228 229 235 238 237 234 229 220 215 219 224 233 245 256 259 255 249 244 240 238 239 240 242 242 241 239 238 239 244 254 265 271 277 284 289 294 299 302 305 308 310 310 309 307 304 302 300 299 303 312 324 332 335 334 335 336 335 332 326 321 321 327 334 341 344 347 359 15 25 40 71 93 142 179 192 208
233 222 213 209 209 210 215 220 222 222 222 222 225 230 233 235 236 239 237 231 224 226 235 244 251 256 256 252 248 243 239 238 240 242 243 242 240 239 242 247 256 263 267 272 277 283 290 296 301 304 305 306 306 305 304 302 300 299 303 310 314 320 333 341 340 336 335 337 337 334 328 323 324 330 339 344 348 355 11 27 40 61 105 144 180 204 232
230 223 216 211 208 209 214 219 220 219 218 220 222 224 226 226 224 226 233 231 218 217 230 239 243 247 252 253 251 246 240 237 239 241 241 242 240 240 244 250 254 258 261 265 269 276 285 293 299 302 304 305 305 306 307 308 307 304 307 312 313 316 330 343 344 338 335 337 339 340 337 331 327 329 336 343 349 353 2 22 38 54 88 129 147 164 196
220 214 210 208 208 213 219 224 226 224 224 224 223 221 222 223 219 214 218 221 214 214 225 233 235 239 246 250 248 245 242 241 241 241 242 242 241 242 245 249 251 253 256 259 265 272 280 289 295 299 301 303 302 302 302 302 302 301 303 306 308 312 322 336 344 344 338 334 337 342 344 339 335 333 335 339 347 353 357 10 32 49 72 105 124 131 131
210 209 208 209 212 217 223 229 234 236 233 229 226 222 220 220 217 210 206 206 208 213 221 227 231 236 243 246 245 241 239 239 240 241 243 244 243 243 244 245 246 248 252 256 263 269 275 285 292 295 296 296 295 296 297 299 300 303 302 300 302 307 315 325 338 345 340 332 333 340 346 344 341 340 338 337 343 351 356 3 20 41 62 84 104 120 128
200 206 208 213 217 222 227 232 238 241 239 233 227 222 217 212 209 206 202 203 209 216 221 225 231 239 244 246 244 241 238 237 237 238 239 241 241 242 242 241 242 244 248 253 259 265 271 279 285 288 289 289 288 291 296 301 304 307 305 300 300 306 312 317 328 340 340 333 330 335 343 345 345 345 344 341 340 345 353 1 11 29 51 72 90 107 123
188 197 198 202 209 216 223 227 231 236 238 232 222 216 210 203 199 200 202 206 212 218 221 225 232 240 246 248 248 245 241 237 236 235 234 235 236 238 238 239 240 242 246 251 257 262 268 274 279 282 285 285 285 288 293 297 301 305 307 304 303 306 311 313 318 330 337 334 329 331 337 343 345 346 346 346 343 342 347 359 9 19 34 56 78 96 112
204 197 193 196 202 204 209 216 219 223 227 225 220 218 215 204 196 197 203 212 219 223 226 231 238 245 251 253 252 249 244 240 236 234 233 233 233 234 234 236 238 242 246 251 255 258 262 267 272 276 279 279 279 281 284 294 308 316 317 313 310 310 313 315 316 322 331 334 330 329 333 339 344 346 346 347 348 345 342 350 8 22 29 39 61 83 101
219 211 205 208 212 200 190 196 197 175 181 197 199 201 209 209 204 204 210 217 222 225 229 233 240 248 254 257 256 253 250 245 240 237 236 235 233 233 233 234 238 242 247 250 252 254 257 260 263 267 272 274 275 277 281 293 313 322 321 318 316 314 315 316 316 320 328 332 330 328 331 336 342 345 344 345 349 350 345 343 352 22 47 50 52 65 88
204 201 200 207 213 205 198 195 171 136 129 142 157 160 171 188 195 199 204 208 212 218 225 230 237 244 250 253 254 252 250 248 245 241 239 237 234 233 233 235 238 242 245 248 250 252 255 258 261 264 269 273 276 279 284 292 302 308 311 315 319 319 319 318 316 318 324 329 329 329 333 337 342 344 344 344 347 350 350 349 348 353 43 98 98 87 92
149 143 146 161 186 200 207 205 180 165 164 173 181 182 187 190 187 187 194 202 205 210 218 223 229 234 238 241 244 245 243 242 240 238 237 235 233 233 234 236 238 241 244 245 247 248 250 253 257 260 266 270 273 276 282 287 293 297 301 308 316 320 322 322 320 319 323 327 329 330 336 341 345 346 345 345 347 349 352 353 354 352 346 168 151 140 139
130 126 131 136 163 188 192 176 169 175 182 190 196 202 210 210 201 198 202 208 210 216 224 225 223 224 226 230 234 235 233 229 227 226 227 229 231 233 235 235 236 238 239 240 242 245 248 251 254 257 261 265 268 270 275 280 286 291 295 301 308 313 316 320 321 321 322 326 330 332 330 335 346 352 351 348 349 351 353 355 356 357 352 328 216 171 161
144 139 148 156 186 220 222 209 186 184 190 198 206 216 224 224 216 211 210 211 214 222 230 231 227 222 221 225 229 229 226 223 221 221 222 223 226 229 230 229 228 229 231 232 235 239 242 246 251 255 259 262 264 267 270 275 280 284 288 292 299 305 310 314 317 319 319 323 331 336 328 321 333 350 355 354 354 354 355 355 356 358 359 354 328 231 188
189 183 187 200 223 246 257 262 263 257 244 234 230 232 236 235 227 217 211 212 219 226 231 234 232 228 225 227 231 233 230 227 227 228 231 233 233 234 233 231 229 227 227 228 230 232 235 240 246 251 256 259 261 263 265 268 272 276 278 280 284 290 296 302 307 310 312 314 320 330 332 324 324 333 345 353 357 357 357 355 354 355 358 359 355 336 254
215 215 218 223 230 241 251 257 263 269 270 267 261 249 240 241 238 229 221 220 227 233 237 238 236 232 229 230 233 236 236 235 234 235 238 242 244 245 243 241 239 237 236 237 237 238 241 244 247 250 254 256 257 259 262 265 268 271 274 276 277 278 281 285 289 293 298 302 305 311 321 325 324 323 327 332 341 348 354 356 355 353 354 356 356 353 344
226 226 229 231 233 238 244 249 255 261 265 266 266 262 253 247 245 241 235 233 235 239 244 246 245 242 239 237 236 237 239 240 239 239 240 243 246 249 249 247 245 243 243 245 247 249 251 252 252 253 254 254 255 255 257 259 262 267 271 274 277 278 278 278 279 280 284 288 292 295 300 304 307 310 313 317 319 324 336 345 349 349 350 350 352 351 350
238 238 241 243 243 244 246 250 253 258 262 264 266 267 264 259 254 250 246 243 241 241 243 247 249 250 249 247 244 243 243 244 244 244 243 243 245 248 249 250 248 247 246 247 249 250 251 252 252 252 251 251 252 253 254 255 257 261 265 269 274 277 279 281 281 280 280 281 282 285 287 289 290 290 292 296 300 302 305 314 324 333 340 345 348 349 347
246 247 249 252 254 254 255 254 254 256 258 260 262 264 265 263 261 257 253 249 247 245 244 244 246 248 250 251 251 250 248 246 245 245 244 243 243 244 246 246 246 246 247 248 249 248 247 246 246 246 246 246 248 251 253 254 256 258 262 267 270 272 275 278 281 283 283 283 282 283 284 284 285 284 282 281 281 281 281 285 292 300 311 325 336 343 344
248 248 248 250 253 255 257 258 258 258 259 260 261 262 263 264 264 263 261 257 254 252 250 248 246 245 246 247 249 250 250 249 247 245 244 244 244 244 243 243 242 242 243 245 247 247 246 244 242 242 243 244 246 249 252 255 257 259 262 266 268 269 270 271 273 276 280 282 283 284 285 285 285 284 282 279 276 274 272 271 272 274 279 287 297 309 324
248 247 247 249 252 255 258 261 264 266 267 267 268 268 268 268 267 267 266 265 262 260 257 254 252 249 247 246 246 247 249 249 249 247 246 246 246 246 245 244 242 241 241 243 245 246 246 245 244 244 245 246 247 249 252 255 258 260 261 262 263 264 265 266 267 270 273 276 280 283 284 284 284 284 283 281 279 276 274 272 270 267 265 267 269 273 278
253 252 252 254 258 261 264 267 269 272 274 276 276 277 278 277 276 273 271 269 268 266 264 261 259 256 253 250 248 247 247 248 249 249 249 248 248 248 247 246 245 244 244 244 245 246 246 247 247 247 247 248 250 251 252 253 255 257 259 259 259 258 259 260 262 264 267 270 275 280 284 285 285 284 282 281 281 279 276 274 272 269 266 263 261 261 260
264 261 260 261 262 264 266 269 271 274 277 279 280 282 283 283 283 281 277 274 271 269 267 266 264 262 260 256 253 251 249 249 249 250 250 250 250 250 249 248 247 247 247 247 248 248 248 249 249 250 251 252 253 254 255 255 255 255 256 257 257 258 258 258 260 261 264 266 269 274 278 282 283 283 281 279 278 277 276 275 273 271 268 265 261 258 255
Height
5632 5632 5632 5631 5627 5624 5624 5625 5625 5626 5626 5625 5623 5622 5623 5624 5618 5614 5624 5629 5623 5625 5633 5635 5636 5637 5636 5636 5635 5633 5635 5637 5638 5639 5640 5641 5641 5641 5642 5642 5642 5642 5642 5641 5642 5642 5643 5643 5643 5643 5642 5641 5640 5640 5639 5638 5637 5636 5635 5634 5633 5632 5631 5630 5630 5629 5628 5627 5626 5625 5624 5623 5622 5622 5621 5621 5620 5619 5618 5618 5618 5619 5619 5619 5619 5620 5620
5625 5625 5623 5621 5619 5617 5616 5618 5618 5618 5618 5617 5615 5615 5615 5615 5610 5608 5614 5616 5614 5619 5628 5629 5628 5627 5628 5629 5629 5628 5629 5630 5631 5632 5634 5635 5635 5635 5636 5636 5637 5637 5636 5636 5637 5638 5638 5638 5638 5638 5637 5636 5635 5634 5633 5632 5631 5630 5629 5628 5627 5626 5625 5624 5623 5622 5621 5620 5619 5618 5617 5616 5615 5615 5614 5613 5612 5611 5610 5610 5610 5610 5610 5611 5611 5611 5611
5616 5617 5615 5613 5611 5609 5608 5610 5611 5611 5610 5609 5608 5607 5607 5605 5602 5601 5604 5602 5603 5613 5622 5622 5618 5618 5620 5622 5622 5623 5624 5624 5625 5626 5628 5629 5629 5629 5630 5631 5631 5631 5631 5632 5632 5633 5633 5633 5633 5633 5632 5631 5630 5629 5628 5627 5626 5625 5624 5623 5621 5620 5619 5618 5617 5616 5614 5613 5612 5610 5609 5609 5608 5607 5606 5605 5604 5603 5603 5602 5601 5601 5601 5602 5602 5602 5603
5607 5611 5607 5603 5604 5602 5600 5603 5605 5605 5604 5601 5599 5599 5597 5596 5594 5593 5593 5591 5596 5608 5614 5610 5608 5611 5613 5614 5616 5617 5617 5617 5618 5619 5621 5622 5623 5623 5624 5625 5626 5626 5626 5627 5627 5628 5628 5628 5628 5627 5626 5625 5624 5623 5622 5621 5620 5619 5618 5617 5615 5614 5613 5611 5610 5609 5607 5606 5605 5603 5602 5601 5601 5599 5598 5597 5596 5595 5594 5594 5593 5593 5593 5593 5593 5593 5594
5600 5604 5600 5597 5596 5593 5593 5598 5600 5598 5596 5593 5591 5590 5590 5590 5588 5586 5585 5586 5592 5600 5601 5599 5601 5605 5606 5607 5609 5610 5610 5611 5611 5613 5614 5616 5617 5617 5618 5619 5620 5621 5622 5622 5623 5623 5623 5623 5622 5622 5621 5620 5619 5618 5617 5616 5615 5614 5613 5611 5610 5608 5606 5605 5603 5602 5600 5599 5598 5596 5595 5594 5593 5592 5591 5589 5588 5587 5586 5585 5584 5584 5584 5584 5584 5584 5584
5593 5597 5595 5591 5587 5585 5589 5595 5593 5589 5588 5585 5583 5583 5583 5584 5582 5580 5580 5582 5586 5589 5589 5591 5595 5597 5599 5600 5601 5603 5604 5605 5606 5607 5608 5610 5611 5612 5613 5614 5615 5616 5617 5617 5618 5618 5618 5618 5617 5616 5615 5614 5613 5612 5612 5611 5610 5609 5607 5606 5604 5602 5600 5598 5596 5595 5593 5592 5591 5590 5589 5587 5586 5585 5583 5582 5580 5579 5578 5577 5576 5576 5575 5575 5574 5574 5574
5585 5589 5588 5582 5578 5580 5586 5589 5586 5581 5580 5579 5576 5576 5577 5578 5577 5575 5574 5576 5579 5580 5580 5583 5587 5590 5591 5592 5594 5596 5598 5599 5601 5602 5602 5604 5605 5606 5607 5609 5610 5611 5612 5612 5613 5613 5613 5613 5612 5611 5610 5609 5608 5607 5606 5606 5605 5603 5602 5600 5598 5596 5594 5592 5590 5588 5587 5586 5584 5583 5582 5580 5579 5577 5576 5574 5573 5571 5570 5569 5567 5567 5566 5565 5565 5564 5564
5578 5580 5580 5574 5572 5576 5580 5581 5579 5576 5574 5573 5570 5568 5572 5574 5572 5569 5569 5570 5573 5572 5572 5575 5579 5582 5583 5584 5587 5590 5592 5593 5594 5595 5596 5598 5599 5600 5602 5603 5605 5606 5606 5607 5607 5608 5608 5607 5606 5605 5605 5604 5603 5602 5601 5601 5599 5598 5596 5594 5592 5590 5587 5585 5583 5582 5581 5579 5578 5576 5575 5574 5572 5570 5568 5567 5565 5563 5561 5560 5558 5557 5556 5555 5555 5554 5553
5572 5572 5572 5569 5567 5570 5573 5573 5572 5570 5568 5567 5563 5562 5567 5569 5566 5564 5564 5565 5566 5566 5566 5569 5571 5573 5575 5577 5580 5584 5586 5586 5587 5589 5590 5591 5593 5595 5597 5598 5599 5600 5601 5601 5602 5602 5602 5601 5601 5600 5600 5599 5598 5597 5596 5595 5594 5592 5591 5588 5586 5584 5581 5579 5577 5576 5574 5573 5571 5570 5569 5567 5565 5563 5561 5559 5557 5554 5553 5551 5549 5547 5546 5545 5544 5543 5542
5567 5565 5565 5564 5563 5564 5566 5566 5566 5565 5563 5562 5558 5557 5561 5564 5561 5559 5559 5559 5559 5560 5561 5563 5563 5565 5568 5571 5575 5578 5580 5580 5581 5583 5584 5585 5587 5590 5591 5592 5594 5595 5595 5596 5596 5596 5596 5596 5595 5595 5594 5594 5593 5592 5591 5590 5588 5587 5585 5582 5580 5578 5575 5573 5572 5570 5568 5567 5565 5564 5562 5560 5558 5556 5554 5551 5549 5546 5544 5542 5540 5538 5536 5535 5535 5534 5533
5561 5559 5557 5556 5556 5559 5561 5559 5559 5558 5557 5557 5555 5553 5556 5558 5556 5555 5555 5555 5555 5556 5557 5558 5558 5559 5562 5566 5570 5573 5574 5574 5575 5577 5578 5580 5582 5585 5586 5587 5589 5590 5590 5591 5591 5591 5591 5590 5590 5590 5589 5589 5588 5587 5586 5585 5583 5581 5579 5577 5574 5572 5570 5568 5566 5564 5563 5561 5560 5558 5556 5554 5552 5549 5547 5544 5542 5539 5536 5534 5532 5530 5529 5527 5527 5526 5524
5554 5553 5550 5549 5550 5553 5553 5553 5553 5552 5551 5551 5550 5549 5551 5553 5551 5550 5551 5551 5551 5551 5552 5553 5554 5555 5558 5561 5563 5567 5568 5569 5569 5571 5573 5575 5578 5580 5581 5583 5584 5584 5585 5585 5585 5586 5585 5585 5585 5585 5584 5584 5583 5582 5581 5579 5578 5576 5574 5571 5569 5567 5565 5563 5561 5559 5558 5556 5555 5553 5550 5548 5545 5543 5540 5537 5535 5532 5530 5527 5525 5523 5521 5520 5519 5518 5517
5548 5546 5543 5543 5545 5547 5546 5546 5546 5546 5545 5546 5545 5544 5546 5547 5547 5547 5547 5546 5546 5547 5548 5549 5550 5552 5554 5556 5558 5561 5563 5562 5563 5566 5568 5571 5573 5575 5577 5578 5579 5579 5580 5580 5580 5580 5580 5581 5581 5580 5580 5579 5578 5577 5576 5574 5572 5570 5569 5566 5564 5562 5560 5558 5556 5555 5553 5551 5549 5547 5544 5542 5539 5536 5534 5531 5529 5526 5523 5521 5519 5516 5514 5512 5511 5510 5509
5541 5540 5537 5537 5539 5541 5540 5539 5539 5540 5540 5540 5539 5540 5541 5541 5542 5542 5542 5542 5542 5543 5544 5546 5547 5549 5551 5552 5554 5556 5557 5557 5559 5562 5564 5567 5569 5570 5572 5573 5574 5574 5575 5575 5575 5576 5576 5577 5577 5576 5575 5574 5573 5572 5570 5569 5567 5566 5564 5561 5559 5557 5555 5553 5552 5550 5548 5546 5543 5541 5538 5536 5533 5531 5528 5525 5522 5520 5517 5515 5512 5509 5507 5505 5503 5502 5502
5534 5534 5533 5532 5534 5535 5534 5533 5534 5534 5535 5534 5533 5535 5536 5536 5536 5537 5538 5538 5538 5538 5540 5542 5543 5545 5547 5549 5550 5552 5553 5555 5557 5559 5561 5563 5564 5566 5568 5569 5569 5569 5570 5571 5571 5571 5572 5573 5572 5571 5570 5569 5568 5567 5565 5564 5562 5561 5559 5557 5555 5553 5551 5549 5548 5545 5543 5540 5538 5535 5533 5530 5528 5526 5523 5520 5517 5513 5510 5508 5505 5502 5499 5498 5496 5495 5495
5528 5528 5528 5528 5528 5529 5528 5528 5529 5529 5529 5528 5529 5530 5531 5532 5532 5532 5534 5534 5532 5533 5536 5538 5540 5542 5544 5545 5546 5548 5550 5552 5554 5555 5557 5559 5560 5562 5563 5564 5565 5565 5566 5566 5566 5567 5568 5568 5567 5566 5565 5564 5563 5562 5560 5559 5557 5556 5554 5552 5550 5549 5547 5545 5543 5541 5538 5535 5533 5530 5528 5526 5524 5521 5518 5515 5512 5507 5504 5501 5498 5495 5493 5492 5490 5489 5489
5522 5522 5523 5523 5523 5524 5523 5523 5524 5524 5524 5524 5525 5525 5527 5528 5527 5528 5529 5529 5528 5529 5531 5534 5536 5539 5540 5541 5543 5545 5546 5549 5550 5552 5553 5555 5556 5557 5558 5559 5561 5561 5561 5562 5562 5563 5563 5563 5562 5561 5561 5560 5558 5557 5556 5554 5553 5551 5550 5548 5546 5545 5543 5542 5539 5536 5533 5531 5529 5526 5524 5522 5520 5517 5514 5511 5507 5502 5497 5495 5492 5490 5489 5488 5486 5485 5484
5516 5516 5518 5519 5518 5518 5518 5518 5519 5519 5519 5520 5521 5522 5523 5523 5523 5524 5524 5525 5525 5526 5528 5530 5532 5534 5536 5538 5540 5541 5543 5545 5546 5548 5550 5551 5552 5553 5554 5555 5556 5557 5557 5558 5559 5559 5559 5559 5558 5557 5556 5555 5554 5552 5551 5550 5549 5547 5546 5544 5543 5541 5540 5538 5535 5532 5530 5527 5525 5523 5521 5518 5516 5513 5510 5506 5501 5496 5492 5490 5488 5487 5486 5485 5483 5481 5480
5511 5511 5514 5514 5513 5512 5513 5514 5514 5514 5515 5516 5518 5518 5519 5519 5520 5520 5520 5521 5522 5523 5524 5526 5528 5530 5532 5534 5536 5538 5540 5541 5543 5544 5546 5547 5548 5549 5550 5552 5552 5553 5554 5555 5555 5555 5555 5554 5553 5552 5551 5550 5549 5548 5547 5546 5545 5543 5542 5541 5539 5538 5536 5534 5531 5528 5526 5524 5522 5520 5517 5515 5512 5509 5506 5501 5496 5492 5488 5486 5485 5484 5483 5482 5480 5479 5477
5505 5507 5509 5509 5508 5508 5509 5510 5510 5510 5511 5512 5513 5514 5515 5516 5516 5516 5517 5518 5519 5520 5521 5523 5525 5526 5528 5530 5532 5535 5536 5538 5539 5541 5542 5543 5544 5545 5547 5548 5549 5550 5551 5552 5552 5551 5551 5550 5549 5548 5547 5546 5545 5544 5543 5542 5541 5540 5539 5537 5536 5534 5532 5530 5527 5525 5523 5521 5519 5517 5514 5512 5510 5506 5502 5498 5493 5488 5485 5484 5483 5482 5480 5479 5477 5475 5473
5501 5503 5504 5504 5504 5504 5505 5506 5506 5506 5507 5508 5509 5510 5511 5512 5512 5512 5513 5514 5515 5517 5519 5520 5522 5523 5524 5526 5529 5531 5532 5534 5536 5537 5538 5540 5541 5542 5543 5544 5545 5547 5548 5548 5548 5548 5547 5547 5546 5544 5543 5542 5541 5540 5540 5539 5538 5537 5535 5534 5533 5531 5529 5526 5524 5522 5520 5518 5516 5514 5511 5509 5506 5503 5500 5495 5490 5486 5484 5482 5481 5480 5477 5475 5473 5472 5470
5498 5499 5499 5499 5499 5501 5502 5502 5502 5503 5504 5505 5506 5507 5508 5509 5509 5509 5510 5511 5512 5514 5516 5517 5518 5519 5521 5523 5525 5526 5527 5530 5532 5533 5535 5536 5538 5539 5540 5541 5542 5543 5544 5545 5545 5545 5544 5543 5542 5541 5540 5539 5538 5537 5536 5535 5535 5533 5532 5531 5530 5528 5526 5523 5521 5519 5518 5515 5513 5511 5509 5506 5503 5500 5497 5493 5488 5485 5483 5481 5479 5478 5475 5473 5471 5469 5467
5494 5495 5495 5495 5495 5497 5499 5499 5499 5500 5501 5502 5503 5504 5505 5506 5506 5506 5507 5508 5509 5511 5512 5513 5514 5516 5517 5520 5521 5521 5523 5526 5528 5530 5531 5533 5534 5535 5536 5537 5539 5540 5541 5542 5542 5542 5541 5540 5539 5538 5536 5535 5534 5534 5533 5532 5532 5530 5529 5529 5527 5525 5523 5521 5519 5517 5515 5513 5511 5509 5506 5504 5501 5498 5495 5490 5486 5483 5481 5479 5477 5476 5474 5471 5469 5468 5466
5490 5491 5491 5491 5491 5493 5495 5495 5496 5496 5497 5498 5500 5501 5502 5503 5504 5504 5505 5506 5507 5508 5509 5510 5511 5512 5514 5516 5517 5518 5520 5523 5525 5526 5528 5530 5531 5532 5533 5534 5535 5537 5538 5539 5539 5538 5537 5537 5536 5534 5533 5532 5531 5531 5530 5530 5529 5528 5527 5526 5525 5523 5521 5518 5516 5514 5513 5511 5509 5507 5504 5502 5499 5496 5493 5489 5485 5482 5479 5478 5476 5474 5473 5470 5468 5466 5465
5485 5486 5487 5487 5488 5490 5492 5492 5492 5493 5494 5495 5497 5499 5500 5501 5501 5502 5503 5504 5505 5505 5506 5507 5508 5509 5510 5513 5514 5516 5518 5520 5521 5523 5525 5527 5528 5529 5530 5531 5532 5534 5535 5536 5536 5535 5534 5533 5532 5531 5530 5530 5529 5528 5528 5527 5526 5526 5525 5524 5523 5521 5518 5516 5514 5512 5510 5508 5507 5505 5502 5500 5497 5495 5492 5488 5484 5480 5478 5477 5475 5473 5472 5470 5468 5465 5464
5481 5482 5483 5484 5485 5487 5488 5489 5489 5490 5491 5492 5494 5496 5498 5498 5499 5500 5501 5501 5502 5503 5503 5504 5506 5506 5508 5510 5512 5514 5515 5516 5518 5520 5522 5524 5525 5526 5527 5528 5530 5531 5532 5533 5532 5532 5531 5530 5529 5528 5528 5527 5526 5526 5525 5525 5524 5523 5523 5522 5521 5519 5516 5514 5511 5509 5508 5506 5505 5503 5501 5498 5496 5494 5491 5488 5484 5480 5477 5476 5474 5473 5472 5470 5468 5466 5464
5477 5478 5479 5480 5482 5484 5485 5486 5487 5488 5488 5489 5491 5493 5495 5495 5496 5498 5499 5499 5500 5501 5502 5503 5504 5505 5507 5508 5510 5511 5512 5514 5516 5518 5519 5521 5522 5524 5525 5526 5527 5528 5529 5530 5530 5529 5529 5528 5527 5526 5525 5524 5524 5523 5522 5522 5522 5521 5520 5520 5518 5517 5514 5512 5509 5507 5505 5504 5502 5501 5499 5497 5495 5492 5490 5487 5484 5480 5476 5475 5473 5472 5471 5470 5469 5467 5465
5473 5474 5476 5477 5479 5481 5482 5483 5484 5485 5485 5486 5488 5490 5492 5493 5494 5495 5496 5497 5498 5500 5500 5501 5503 5504 5506 5507 5508 5509 5511 5512 5514 5515 5517 5518 5520 5521 5522 5523 5524 5525 5526 5527 5527 5526 5526 5525 5524 5523 5522 5522 5521 5520 5520 5519 5519 5518 5518 5517 5516 5514 5513 5510 5508 5505 5503 5501 5501 5499 5497 5496 5494 5491 5489 5487 5484 5480 5477 5474 5473 5472 5471 5470 5469 5468 5467
5470 5471 5473 5474 5476 5478 5479 5481 5482 5482 5483 5484 5485 5486 5488 5490 5492 5493 5494 5495 5496 5498 5499 5500 5501 5502 5504 5505 5507 5508 5509 5510 5512 5513 5514 5516 5517 5519 5520 5521 5522 5523 5523 5524 5524 5523 5522 5522 5521 5520 5520 5519 5519 5518 5517 5517 5516 5516 5516 5515 5514 5512 5511 5509 5507 5504 5501 5499 5499 5498 5496 5494 5493 5491 5489 5486 5484 5481 5477 5474 5473 5472 5471 5470 5470 5470 5468
5467 5468 5470 5472 5473 5475 5477 5478 5479 5480 5480 5481 5482 5483 5485 5487 5489 5491 5492 5494 5495 5497 5498 5498 5499 5501 5503 5504 5505 5506 5507 5508 5509 5510 5512 5514 5515 5516 5518 5519 5519 5520 5520 5520 5520 5520 5519 5519 5518 5518 5517 5517 5516 5516 5515 5515 5514 5514 5514 5513 5512 5511 5509 5508 5505 5503 5501 5498 5497 5496 5495 5493 5492 5490 5488 5486 5484 5481 5478 5475 5473 5472 5471 5470 5470 5470 5470
5465 5466 5467 5469 5471 5473 5474 5476 5477 5478 5478 5479 5480 5480 5482 5484 5486 5488 5490 5492 5494 5496 5496 5496 5497 5499 5500 5502 5503 5504 5505 5506 5507 5508 5510 5511 5513 5514 5515 5516 5517 5517 5517 5517 5517 5517 5516 5516 5516 5516 5515 5515 5515 5514 5513 5513 5512 5512 5512 5511 5511 5510 5508 5507 5505 5502 5500 5498 5496 5495 5493 5492 5491 5490 5488 5486 5485 5482 5480 5477 5474 5472 5472 5472 5471 5471 5470
5463 5464 5465 5466 5468 5470 5472 5474 5475 5476 5477 5477 5478 5479 5480 5482 5484 5486 5488 5490 5492 5494 5494 5494 5495 5497 5498 5499 5500 5501 5502 5503 5505 5506 5508 5509 5511 5512 5513 5514 5514 5514 5514 5515 5515 5514 5514 5514 5514 5513 5513 5513 5513 5512 5511 5510 5510 5510 5510 5509 5509 5508 5507 5506 5504 5502 5500 5497 5495 5494 5493 5491 5490 5489 5488 5486 5485 5483 5481 5478 5476 5474 5473 5473 5472 5472 5471
5461 5462 5463 5465 5467 5468 5470 5471 5473 5474 5475 5476 5476 5477 5478 5480 5482 5485 5486 5487 5489 5491 5491 5492 5493 5495 5496 5497 5498 5499 5500 5501 5503 5504 5506 5507 5509 5510 5510 5511 5511 5512 5512 5512 5512 5512 5512 5511 5511 5511 5511 5511 5511 5511 5510 5508 5508 5508 5508 5508 5507 5506 5506 5505 5503 5501 5499 5497 5495 5494 5492 5491 5490 5489 5488 5486 5485 5483 5481 5480 5478 5476 5474 5473 5473 5473 5472
5460 5460 5462 5463 5465 5467 5468 5469 5470 5472 5473 5474 5475 5476 5477 5478 5480 5482 5483 5485 5487 5488 5489 5490 5491 5493 5494 5495 5495 5496 5497 5499 5500 5502 5504 5505 5506 5507 5508 5508 5509 5509 5509 5510 5509 5509 5509 5509 5509 5510 5510 5509 5509 5509 5508 5507 5507 5506 5506 5506 5506 5505 5504 5503 5502 5500 5498 5496 5494 5493 5492 5491 5489 5488 5487 5486 5485 5484 5482 5481 5479 5478 5476 5475 5474 5474 5474
5459 5460 5461 5462 5464 5465 5466 5467 5468 5469 5471 5472 5473 5474 5476 5477 5478 5479 5481 5482 5484 5486 5487 5488 5490 5491 5492 5493 5493 5494 5495 5496 5498 5499 5501 5502 5504 5504 5505 5506 5506 5507 5507 5507 5507 5507 5507 5507 5508 5508 5508 5508 5508 5507 5507 5506 5506 5505 5505 5504 5504 5503 5503 5502 5501 5500 5498 5496 5494 5493 5492 5491 5489 5488 5487 5486 5485 5484 5483 5482 5480 5479 5478 5477 5475 5475 5475
5458 5459 5460 5461 5463 5464 5465 5466 5467 5467 5468 5469 5471 5472 5473 5475 5476 5477 5479 5480 5482 5483 5485 5486 5488 5489 5490 5490 5491 5492 5493 5494 5495 5497 5498 5500 5501 5502 5503 5503 5504 5504 5505 5505 5505 5505 5505 5505 5506 5506 5506 5507 5506 5506 5506 5505 5504 5504 5503 5503 5502 5501 5501 5501 5500 5500 5498 5496 5493 5492 5492 5491 5490 5488 5487 5486 5485 5485 5484 5483 5481 5480 5479 5478 5477 5476 5476
5458 5458 5460 5461 5462 5463 5464 5464 5465 5466 5466 5467 5468 5470 5471 5473 5475 5476 5477 5479 5480 5481 5483 5484 5486 5487 5487 5488 5489 5490 5491 5492 5493 5494 5495 5497 5498 5499 5500 5501 5502 5502 5502 5503 5503 5503 5503 5503 5504 5504 5505 5505 5505 5505 5504 5504 5503 5503 5502 5501 5501 5500 5500 5499 5499 5499 5498 5496 5494 5492 5492 5491 5490 5489 5487 5486 5486 5485 5484 5483 5482 5481 5480 5479 5479 5478 5477
5457 5458 5459 5460 5461 5462 5463 5464 5464 5465 5465 5465 5466 5468 5469 5471 5473 5475 5476 5478 5478 5480 5481 5482 5483 5484 5485 5486 5486 5487 5488 5490 5491 5492 5493 5494 5495 5496 5498 5498 5499 5500 5500 5500 5501 5501 5501 5502 5502 5503 5503 5503 5504 5503 5503 5503 5502 5502 5501 5501 5500 5500 5499 5499 5498 5498 5497 5496 5494 5492 5491 5491 5490 5489 5488 5487 5486 5485 5484 5484 5483 5482 5482 5481 5480 5480 5479
5457 5458 5459 5459 5460 5462 5463 5463 5464 5464 5464 5464 5465 5467 5469 5470 5472 5474 5475 5476 5477 5478 5479 5480 5481 5482 5482 5483 5484 5485 5486 5487 5488 5489 5490 5492 5493 5494 5495 5496 5497 5497 5498 5498 5498 5499 5500 5500 5500 5501 5501 5502 5502 5502 5502 5502 5501 5501 5501 5500 5500 5499 5499 5498 5498 5497 5496 5496 5494 5493 5492 5491 5490 5489 5488 5487 5486 5485 5484 5484 5484 5483 5483 5483 5482 5482 5482
5457 5458 5459 5459 5460 5461 5462 5464 5464 5465 5465 5465 5466 5468 5469 5470 5472 5473 5474 5474 5475 5476 5477 5478 5478 5479 5480 5481 5482 5483 5484 5485 5486 5487 5488 5489 5491 5492 5493 5494 5494 5495 5495 5496 5496 5497 5498 5498 5499 5499 5500 5500 5500 5500 5500 5500 5500 5500 5500 5500 5499 5498 5498 5497 5497 5496 5496 5495 5494 5494 5492 5491 5490 5490 5488 5487 5486 5486 5485 5484 5484 5484 5484 5484 5484 5484 5484
5457 5458 5459 5459 5460 5461 5462 5463 5464 5465 5466 5466 5467 5468 5468 5469 5470 5471 5472 5473 5473 5474 5475 5476 5477 5477 5478 5480 5481 5482 5483 5483 5484 5485 5486 5487 5488 5489 5490 5491 5492 5492 5493 5493 5494 5495 5496 5496 5497 5497 5498 5498 5499 5499 5499 5499 5499 5499 5499 5499 5498 5498 5497 5497 5496 5496 5495 5495 5494 5494 5493 5492 5491 5490 5489 5488 5487 5486 5485 5485 5484 5484 5484 5484 5484 5484 5485
5458 5458 5459 5460 5460 5461 5462 5463 5464 5465 5466 5466 5467 5467 5468 5469 5470 5470 5471 5471 5472 5473 5474 5474 5475 5476 5477 5478 5479 5480 5481 5482 5483 5483 5484 5485 5486 5487 5488 5488 5489 5490 5491 5491 5492 5493 5493 5494 5495 5495 5496 5496 5497 5497 5497 5497 5497 5498 5498 5498 5497 5497 5497 5496 5496 5495 5495 5494 5494 5493 5493 5492 5492 5491 5490 5489 5488 5487 5486 5485 5485 5484 5484 5485 5485 5485 5485
5458 5458 5459 5460 5461 5461 5462 5462 5463 5464 5465 5466 5467 5467 5468 5468 5469 5469 5469 5470 5471 5471 5472 5473 5473 5474 5475 5476 5477 5478 5479 5480 5481 5481 5482 5483 5483 5484 5485 5486 5487 5488 5488 5489 5490 5491 5491 5492 5492 5493 5494 5494 5495 5495 5495 5495 5496 5496 5496 5496 5496 5496 5496 5496 5495 5495 5494 5494 5493 5493 5493 5492 5492 5491 5491 5490 5489 5488 5487 5486 5485 5485 5485 5485 5485 5485 5486
5457 5458 5459 5460 5460 5461 5461 5462 5462 5463 5464 5465 5465 5466 5467 5467 5468 5468 5468 5469 5469 5470 5470 5471 5472 5472 5473 5474 5475 5475 5477 5478 5479 5479 5480 5480 5481 5482 5483 5484 5484 5485 5486 5487 5488 5488 5489 5490 5490 5491 5491 5492 5492 5493 5493 5493 5494 5494 5494 5494 5495 5495 5495 5495 5495 5494 5494 5493 5493 5493 5492 5492 5492 5491 5491 5491 5490 5489 5488 5487 5486 5486 5485 5485 5485 5486 5486
5457 5458 5458 5459 5460 5461 5461 5461 5462 5462 5463 5463 5464 5465 5466 5466 5467 5467 5467 5468 5468 5468 5468 5469 5469 5470 5471 5472 5472 5473 5474 5475 5476 5477 5477 5478 5479 5480 5481 5482 5482 5483 5484 5484 5485 5486 5487 5487 5488 5489 5489 5490 5490 5491 5491 5491 5491 5492 5492 5492 5493 5493 5493 5493 5493 5493 5493 5493 5493 5492 5492 5492 5491 5491 5491 5491 5491 5490 5489 5488 5487 5486 5486 5486 5486 5486 5486
5456 5457 5458 5458 5459 5460 5460 5461 5461 5461 5462 5462 5463 5463 5464 5465 5465 5466 5466 5466 5467 5467 5467 5467 5467 5467 5468 5469 5470 5471 5472 5472 5473 5474 5475 5476 5477 5477 5478 5479 5480 5481 5481 5482 5483 5483 5484 5485 5486 5486 5487 5487 5488 5489 5489 5489 5489 5490 5490 5490 5490 5490 5491 5491 5492 5492 5492 5492 5492 5491 5491 5491 5491 5491 5490 5490 5490 5490 5490 5489 5489 5488 5487 5486 5486 5486 5486
5456 5456 5457 5458 5458 5459 5459 5460 5460 5460 5460 5460 5461 5461 5462 5462 5463 5464 5464 5464 5465 5465 5465 5465 5465 5465 5466 5466 5467 5468 5469 5469 5470 5471 5472 5473 5474 5475 5475 5476 5477 5478 5479 5480 5480 5481 5482 5482 5483 5484 5484 5485 5485 5486 5487 5487 5487 5488 5488 5488 5488 5488 5489 5489 5489 5490 5490 5490 5490 5490 5490 5490 5490 5490 5490 5490 5490 5490 5489 5489 5489 5488 5488 5487 5487 5486 5486
5455 5455 5456 5456 5457 5457 5457 5458 5458 5459 5459 5459 5459 5459 5459 5459 5460 5460 5461 5461 5462 5462 5462 5462 5463 5463 5463 5463 5464 5464 5465 5466 5467 5468 5468 5469 5470 5471 5472 5473 5474 5475 5476 5477 5477 5478 5479 5479 5480 5481 5481 5482 5483 5483 5484 5484 5485 5485 5485 5486 5486 5486 5487 5487 5487 5487 5488 5488 5488 5489 5489 5489 5489 5489 5489 5489 5489 5489 5489 5489 5489 5488 5488 5488 5488 5487 5487
5453 5454 5454 5454 5455 5455 5455 5456 5456 5456 5456 5457 5457 5457 5457 5457 5457 5457 5457 5458 5458 5459 5459 5459 5460 5460 5460 5460 5461 5461 5462 5462 5463 5464 5465 5466 5467 5468 5469 5470 5471 5472 5473 5473 5474 5475 5475 5476 5477 5477 5478 5479 5479 5480 5480 5481 5482 5482 5483 5483 5484 5484 5484 5485 5485 5485 5486 5486 5486 5487 5487 5487 5487 5487 5488 5488 5488 5488 5488 5488 5488 5488 5488 5488 5488 5488 5488
5451 5452 5452 5452 5453 5453 5453 5453 5453 5453 5454 5454 5454 5454 5454 5454 5454 5454 5454 5454 5454 5454 5455 5455 5456 5456 5457 5457 5457 5458 5458 5459 5459 5460 5461 5462 5463 5464 5465 5466 5467 5468 5469 5470 5471 5471 5472 5472 5473 5474 5475 5475 5476 5477 5477 5478 5479 5479 5480 5481 5481 5482 5482 5482 5483 5483 5484 5484 5484 5484 5485 5485 5485 5486 5486 5486 5486 5487 5487 5487 5487 5487 5487 5487 5487 5487 5487
5450 5450 5450 5450 5450 5450 5450 5450 5450 5450 5450 5450 5451 5451 5451 5451 5451 5450 5450 5450 5450 5450 5450 5451 5451 5452 5452 5453 5453 5454 5454 5455 5455 5456 5457 5457 5458 5459 5461 5462 5463 5464 5465 5466 5466 5467 5468 5469 5469 5470 5471 5472 5472 5473 5474 5475 5475 5476 5477 5477 5478 5479 5479 5480 5480 5480 5481 5481 5482 5482 5482 5483 5483 5483 5484 5484 5485 5485 5485 5485 5486 5486 5486 5486 5486 5486 5487
5447 5447 5447 5447 5447 5447 5447 5447 5447 5447 5447 5447 5446 5446 5446 5446 5446 5446 5445 5445 5445 5445 5445 5445 5445 5446 5446 5447 5448 5449 5449 5450 5450 5451 5452 5452 5453 5455 5456 5457 5458 5459 5460 5461 5462 5463 5464 5464 5465 5466 5467 5468 5468 5469 5470 5471 5471 5472 5473 5474 5474 5475 5475 5476 5477 5477 5478 5478 5479 5479 5480 5480 5480 5481 5481 5482 5482 5483 5483 5484 5484 5484 5484 5485 5485 5485 5486